This demonstration page uses our WeatherBlox Daily Observations layout. Learn more.

Left ArrowRight Arrow

38.20091, -84.87328

Hourly Observations for August 2, 2022

Temp ( °F °C ) Dew Point ( °F °C ) Humidity (%) Winds ( mph kmh ) Pressure ( in mb ) Visibility ( mi km ) Precip ( " mm )
12:53 am 00:53 Clear 77 25 74 23.3 90 90 SW 6 9 29.94 1014 10 16 0.00 0.00
1:53 am 01:53 Clear 77 25 74 23.3 90 90 SW 6 9 29.94 1014 10 16 0.00 0.00
2:53 am 02:53 Clear 75 23.9 73 22.8 94 94 SW 5 7 29.95 1014 10 16 0.00 0.00
3:53 am 03:53 Clear 75 23.9 73 22.8 94 94 WSW 3 6 29.96 1015 8 13 0.00 0.00
4:53 am 04:53 Clear 75 23.9 71 21.7 88 88 WNW 3 6 29.98 1015 10 16 0.00 0.00
5:53 am 05:53 Mostly Cloudy 72 22.2 69 20.6 91 91 Calm 29.98 1015 10 16 0.00 0.00
6:53 am 06:53 Sunny 72 22.2 69 20.6 91 91 Calm 29.98 1015 10 16 0.00 0.00
7:53 am 07:53 Sunny 73 22.8 70 21.1 90 90 WSW 5 7 30.01 1016 10 16 0.00 0.00
8:53 am 08:53 Partly Cloudy 77 25 69 20.6 77 77 WSW 6 9 30.01 1016 10 16 0.00 0.00
9:53 am 09:53 Partly Cloudy 79 26.1 66 18.9 65 65 NW 8 13 30.03 1017 10 16 0.00 0.00
10:53 am 10:53 Mostly Sunny 80 26.7 68 20 67 67 NW 9 15 30.03 1017 10 16 0.00 0.00
11:53 am 11:53 Sunny 82 27.8 67 19.4 60 60 NW 7 11 30.03 1017 10 16 0.00 0.00
12:53 pm 12:53 Sunny 84 28.9 67 19.4 57 57 undefined N/A 30.02 1017 10 16 0.00 0.00
1:53 pm 13:53 Sunny 85 29.4 65 18.3 51 51 N 5 7 30.00 1016 10 16 0.00 0.00
2:53 pm 14:53 Sunny 86 30 68 20 55 55 VRB 5 7 30.00 1016 10 16 0.00 0.00
3:53 pm 15:53 Mostly Sunny 85 29.4 69 20.6 59 59 WSW 9 15 30.01 1016 10 16 0.00 0.00
4:53 pm 16:53 Sunny 83 28.3 68 20 61 61 WSW 7 11 30.00 1016 10 16 0.00 0.00
5:53 pm 17:53 Sunny 84 28.9 69 20.6 61 61 VRB 6 9 29.99 1016 10 16 0.00 0.00
6:53 pm 18:53 Sunny 82 27.8 68 20 63 63 W 3 6 29.97 1015 10 16 0.00 0.00
7:53 pm 19:53 Sunny 82 27.8 69 20.6 65 65 WNW 3 6 29.97 1015 10 16 0.00 0.00
8:53 pm 20:53 Clear 78 25.6 71 21.7 79 79 Calm 29.97 1015 10 16 0.00 0.00
9:53 pm 21:53 Clear 76 24.4 70 21.1 82 82 Calm 29.98 1015 10 16 0.00 0.00
10:53 pm 22:53 Clear 74 23.3 70 21.1 88 88 Calm 30.00 1016 10 16 0.00 0.00
11:53 pm 23:53 Clear 73 22.8 70 21.1 90 90 Calm 30.01 1016 10 16 0.00 0.00

Powered by AerisWeather